Simultaneous Nadir Overpasses (SNOs) Predictions

Prediction of SNOs between FY3D and METOP-C Satellite Orbit:

Table of predicted SNOs for the next 14.0 days since TLE Epoch: 11/16/2019
Index Date (FY3D) Time (FY3D) Lat,Lon (FY3D) SZA (FY3D ) Date (METOP-C) Time (METOP-C) Lat,Lon (METOP-C) SZA (METOP-C ) Distance(km) Time Diff (sec)
1 11/17/2019 07:13:08 -73.70,-117.52 87.40 11/17/2019 07:14:15 -73.66,-114.69 87.49 88.43 67
2 11/17/2019 08:03:50 73.56, 50.13 92.47 11/17/2019 08:04:58 73.52, 52.32 92.39 69.07 68
3 11/17/2019 08:54:32 -73.45,-142.30 87.65 11/17/2019 08:55:42 -73.39,-140.65 87.74 52.69 70
4 11/17/2019 09:45:14 73.30, 25.34 92.21 11/17/2019 09:46:25 73.25, 26.37 92.14 33.29 71
5 11/17/2019 10:35:56 -73.19,-167.10 87.90 11/17/2019 10:37:09 -73.12,-166.59 87.99 18.26 73
6 11/17/2019 11:26:38 73.04, 0.54 91.96 11/17/2019 11:27:51 73.03, 0.54 91.94 1.78 73
7 11/17/2019 12:17:21 -73.04, 167.87 88.04 11/17/2019 12:18:31 -73.04, 167.91 88.04 1.67 70
8 11/17/2019 13:08:06 73.04, -24.82 91.97 11/17/2019 13:09:11 73.06, -24.74 91.98 3.41 65
9 11/17/2019 13:58:50 -73.03, 142.51 88.03 11/17/2019 13:59:53 -73.02, 142.52 88.04 0.78 63
10 11/17/2019 14:49:35 73.03, -50.18 91.98 11/17/2019 14:50:33 73.03, -50.12 91.98 1.77 58
11 11/17/2019 15:40:19 -73.02, 117.15 88.02 11/17/2019 15:41:15 -73.00, 117.13 88.05 2.59 56
12 11/17/2019 16:31:04 73.02, -75.54 91.99 11/17/2019 16:31:55 73.01, -75.51 91.98 1.73 51
13 11/17/2019 17:21:48 -73.02, 91.80 88.01 11/17/2019 17:22:36 -73.03, 91.85 88.00 2.28 48
14 11/17/2019 18:12:33 73.02,-100.89 92.00 11/17/2019 18:13:17 72.99,-100.90 91.97 3.35 44
15 11/17/2019 19:03:17 -73.01, 66.44 88.00 11/17/2019 19:03:58 -73.01, 66.47 88.01 1.03 41
16 11/17/2019 19:54:02 73.01,-126.25 92.01 11/17/2019 19:54:38 73.02,-126.18 92.01 2.42 36
17 11/17/2019 20:44:46 -73.00, 41.08 87.99 11/17/2019 20:45:20 -72.98, 41.08 88.01 2.29 34
18 11/17/2019 21:35:31 73.01,-151.61 92.03 11/17/2019 21:36:00 72.99,-151.57 92.01 1.93 29
19 11/17/2019 22:26:15 -73.00, 15.72 87.98 11/17/2019 22:26:41 -73.01, 15.80 87.97 2.91 26
20 11/17/2019 23:17:00 73.00,-176.97 92.04 11/17/2019 23:17:22 72.97,-176.95 92.01 3.15 22
21 11/18/2019 00:07:44 -72.99, -9.63 87.97 11/18/2019 00:08:03 -72.99, -9.59 87.97 1.54 19
22 11/18/2019 00:58:29 72.99, 157.67 92.05 11/18/2019 00:58:43 73.00, 157.77 92.05 3.07 14
23 11/18/2019 01:49:13 -72.99, -34.99 87.96 11/18/2019 01:49:25 -72.97, -34.98 87.98 2.14 12
24 11/18/2019 02:39:58 72.99, 132.32 92.06 11/18/2019 02:40:05 72.98, 132.38 92.05 2.30 7
25 11/18/2019 03:30:42 -72.98, -60.35 87.95 11/18/2019 03:30:46 -72.99, -60.26 87.93 3.54 4
26 11/18/2019 04:21:27 72.98, 106.96 92.07 11/18/2019 04:21:27 72.95, 106.99 92.04 3.09 0
27 11/18/2019 05:12:11 -72.97, -85.71 87.94 11/18/2019 05:12:08 -72.97, -85.64 87.94 2.13 3
28 11/18/2019 06:02:55 72.92, 81.71 92.03 11/18/2019 06:02:49 72.93, 81.60 92.04 3.52 6
29 11/18/2019 06:53:40 -72.97,-111.07 87.93 11/18/2019 06:53:30 -72.95,-111.03 87.94 2.19 10
30 11/18/2019 07:44:25 72.97, 56.24 92.09 11/18/2019 07:44:10 72.96, 56.32 92.08 2.79 15
31 11/18/2019 08:35:09 -72.96,-136.42 87.92 11/18/2019 08:34:52 -72.93,-136.42 87.95 3.65 17
32 11/18/2019 09:25:54 72.96, 30.88 92.10 11/18/2019 09:25:32 72.94, 30.94 92.08 3.17 22
33 11/18/2019 10:16:38 -72.95,-161.78 87.91 11/18/2019 10:16:13 -72.96,-161.70 87.90 2.75 25
34 11/18/2019 11:07:22 72.91, 5.63 92.06 11/18/2019 11:06:54 72.92, 5.55 92.07 2.99 28
35 11/18/2019 11:58:07 -72.95, 172.86 87.90 11/18/2019 11:57:35 -72.93, 172.91 87.91 2.43 32
36 11/18/2019 12:48:52 72.95, -19.83 92.12 11/18/2019 12:48:15 72.94, -19.73 92.12 3.36 37
37 11/18/2019 13:39:35 -72.89, 147.61 87.94 11/18/2019 13:38:57 -72.91, 147.53 87.91 3.42 38
38 11/18/2019 14:30:20 72.89, -45.08 92.08 11/18/2019 14:29:37 72.92, -45.12 92.11 3.38 43
39 11/18/2019 15:21:05 -72.94, 122.14 87.87 11/18/2019 15:20:18 -72.94, 122.25 87.87 3.40 47
40 11/18/2019 16:11:49 72.89, -70.44 92.09 11/18/2019 16:10:59 72.90, -70.50 92.11 2.52 50
41 11/18/2019 17:02:34 -72.93, 96.79 87.86 11/18/2019 17:01:40 -72.92, 96.86 87.87 2.81 54
42 11/18/2019 17:53:18 72.88, -95.80 92.10 11/18/2019 17:52:21 72.88, -95.89 92.10 3.09 57
43 11/18/2019 18:44:02 -72.87, 71.53 87.91 11/18/2019 18:43:02 -72.89, 71.47 87.88 3.12 60
44 11/18/2019 19:34:47 72.87,-121.16 92.11 11/18/2019 19:33:42 72.91,-121.17 92.14 3.44 65
45 11/18/2019 20:25:31 -72.87, 46.18 87.90 11/18/2019 20:24:24 -72.87, 46.09 87.88 3.01 67
46 11/18/2019 21:16:16 72.87,-146.51 92.12 11/18/2019 21:15:04 72.88,-146.56 92.14 2.16 72
47 11/18/2019 22:07:00 -72.86, 20.82 87.89 11/18/2019 22:05:46 -72.85, 20.70 87.89 4.08 74
48 11/18/2019 22:57:42 72.71,-171.56 91.97 11/18/2019 22:56:29 72.71,-172.26 91.99 23.36 73
49 11/18/2019 23:48:24 -72.60, -4.02 88.14 11/18/2019 23:47:12 -72.62, -5.10 88.09 36.25 72
50 11/19/2019 00:39:05 72.40, 163.71 91.67 11/19/2019 00:37:56 72.43, 161.84 91.74 62.83 69
51 11/19/2019 01:29:48 -72.34, -28.87 88.39 11/19/2019 01:28:39 -72.35, -31.00 88.34 71.92 69
52 11/19/2019 02:20:29 72.14, 138.85 91.41 11/19/2019 02:19:23 72.15, 135.95 91.49 98.65 66




NCC Satellite Simultaneous Nadir Overpasses (SNOs) Prediction Service
